Patuxent River, MD

5:28 AM EST on December 09, 2016 (GMT -0500)
Patuxent River Naval Air Station

Weather History for KNHK - October, 2012

Change the Weather History Date:

Sunday, October 28, 2012

  Actual Average Record
Temperature  
Mean Temperature 58 °F -  
Max Temperature 61 °F 66 °F 84 °F (1984)
Min Temperature 55 °F 47 °F 32 °F (1997)
Degree Days  
Heating Degree Days 7    
Growing Degree Days 8 (Base 50)    
Moisture  
Dew Point 52 °F    
Average Humidity 83    
Maximum Humidity 89    
Minimum Humidity 67    
Precipitation  
Precipitation 1.54 in - - ()
Sea Level Pressure  
Sea Level Pressure 29.64 in    
Wind  
Wind Speed 19 mph (North)    
Max Wind Speed 29 mph    
Max Gust Speed 38 mph    
Visibility 8 miles    
Events Rain    
Averages and records for this station are not official NWS values.
T = Trace of Precipitation, MM = Missing Value Source: NWS Daily Summary

Daily Weather History Graph

Daily Weather History Graph

Search for Another Location

Airport or City:

Trip Planner

Search our weather history database for the weather conditions in past years. The results will help you decide how hot, cold, wet, or windy it might be!

Date:

Astronomy

Oct. 28, 2012 Rise Set
Actual Time 7:28 AM EDT 6:10 PM EDT
Civil Twilight 7:00 AM EDT 6:37 PM EDT
Nautical Twilight 6:29 AM EDT 7:08 PM EDT
Astronomical Twilight 5:59 AM EDT 7:39 PM EDT
Moon 5:26 PM EDT (10/28) 6:19 AM EDT (10/28)
Length of Visible Light 11h 36m
Length of Day
10h 42m
Waxing Gibbous, 99% of the Moon is Illuminated
Oct 28
Waxing Gibbous
Oct 29
Full
Nov 6
Last Quarter
Nov 13
New
Nov 20
First Quarter

Hourly Weather History & Observations

Time (EDT) Temp. Dew Point Humidity Pressure Visibility Wind Dir Wind Speed Gust Speed Precip Events Conditions
12:52 AM 61.0 °F 50.0 °F 67% 29.82 in 10.0 mi NNE 15.0 mph - N/A   Overcast
1:52 AM 59.0 °F 51.1 °F 75% 29.79 in 10.0 mi North 16.1 mph - 0.00 in Rain Light Rain
2:52 AM 57.9 °F 51.1 °F 78% 29.78 in 10.0 mi NNE 15.0 mph - 0.00 in Rain Light Rain
3:41 AM 59.0 °F 51.8 °F 77% 29.77 in 10.0 mi North 15.0 mph - 0.00 in Rain Light Rain
3:52 AM 59.0 °F 52.0 °F 78% 29.77 in 10.0 mi North 16.1 mph - 0.00 in Rain Light Rain
4:52 AM 57.9 °F 53.1 °F 84% 29.74 in 10.0 mi North 18.4 mph 26.5 mph 0.01 in   Mostly Cloudy
5:52 AM 57.9 °F 52.0 °F 81% 29.74 in 10.0 mi NNE 16.1 mph 24.2 mph 0.00 in Rain Light Rain
6:00 AM 57.2 °F 51.8 °F 82% 29.73 in 10.0 mi North 18.4 mph 24.2 mph 0.00 in Rain Light Rain
6:52 AM 57.0 °F 50.0 °F 77% 29.73 in 10.0 mi NNE 17.3 mph 26.5 mph 0.00 in Rain Light Rain
7:31 AM 57.2 °F 50.0 °F 77% 29.73 in 10.0 mi North 21.9 mph 28.8 mph 0.00 in   Overcast
7:52 AM 57.9 °F 51.1 °F 78% 29.73 in 10.0 mi NNE 21.9 mph 28.8 mph 0.00 in   Overcast
8:52 AM 57.9 °F 50.0 °F 75% 29.74 in 10.0 mi North 23.0 mph - 0.01 in   Overcast
9:52 AM 57.0 °F 48.9 °F 74% 29.72 in 10.0 mi North 26.5 mph 34.5 mph N/A   Overcast
10:52 AM 57.9 °F 50.0 °F 75% 29.69 in 10.0 mi North 24.2 mph 32.2 mph 0.00 in Rain Light Rain
11:37 AM 55.4 °F 50.0 °F 82% 29.67 in 10.0 mi North 25.3 mph 38.0 mph 0.01 in Rain Light Rain
11:52 AM 55.9 °F 50.0 °F 80% 29.67 in 10.0 mi North 28.8 mph 36.8 mph 0.02 in Rain Light Rain
12:52 PM 55.9 °F 51.1 °F 84% 29.65 in 10.0 mi North 20.7 mph 34.5 mph 0.02 in Rain Light Rain
1:15 PM 55.4 °F 51.8 °F 88% 29.63 in 10.0 mi NNW 19.6 mph 28.8 mph 0.01 in Rain Light Rain
1:52 PM 57.0 °F 52.0 °F 83% 29.62 in 10.0 mi North 20.7 mph 29.9 mph 0.02 in Rain Light Rain
2:52 PM 57.0 °F 53.1 °F 87% 29.60 in 10.0 mi NNW 19.6 mph 28.8 mph 0.03 in Rain Light Rain
3:52 PM 57.0 °F 53.1 °F 87% 29.61 in 10.0 mi North 18.4 mph - 0.05 in Rain Light Rain
4:52 PM 57.9 °F 54.0 °F 87% 29.58 in 10.0 mi North 16.1 mph 23.0 mph 0.04 in Rain Light Rain
5:52 PM 57.0 °F 54.0 °F 89% 29.58 in 4.0 mi North 21.9 mph 27.6 mph 0.10 in Rain Heavy Rain
6:52 PM 57.0 °F 54.0 °F 89% 29.59 in 6.0 mi North 18.4 mph - 0.20 in Rain Heavy Rain
7:52 PM 57.9 °F 54.0 °F 87% 29.57 in 8.0 mi North 19.6 mph 29.9 mph 0.15 in Rain Rain
8:30 PM 57.2 °F 53.6 °F 88% 29.56 in 10.0 mi North 20.7 mph 29.9 mph 0.06 in Rain Light Rain
8:52 PM 57.9 °F 53.1 °F 84% 29.56 in 10.0 mi North 18.4 mph 28.8 mph 0.09 in Rain Rain
9:17 PM 57.2 °F 53.6 °F 88% 29.56 in 10.0 mi North 19.6 mph - 0.04 in Rain Rain
9:32 PM 57.2 °F 53.6 °F 88% 29.55 in 7.0 mi North 18.4 mph 26.5 mph 0.09 in Rain Heavy Rain
9:41 PM 57.2 °F 53.6 °F 88% 29.55 in 5.0 mi North 23.0 mph 33.4 mph 0.14 in Rain Heavy Rain
9:49 PM 57.2 °F 53.6 °F 88% 29.55 in 4.0 mi North 24.2 mph 34.5 mph 0.20 in Rain Heavy Rain
9:52 PM 57.0 °F 53.1 °F 87% 29.55 in 3.0 mi North 27.6 mph 35.7 mph 0.22 in Rain Heavy Rain
10:03 PM 57.2 °F 53.6 °F 88% 29.54 in 5.0 mi North 28.8 mph 36.8 mph 0.05 in Rain Heavy Rain
10:52 PM 57.0 °F 53.1 °F 87% 29.52 in 4.0 mi North 26.5 mph 34.5 mph 0.31 in Rain Heavy Rain
11:07 PM 57.2 °F 53.6 °F 88% 29.52 in 4.0 mi North 26.5 mph 34.5 mph 0.08 in Rain Heavy Rain
11:10 PM 57.2 °F 53.6 °F 88% 29.52 in 4.0 mi North 24.2 mph 34.5 mph 0.09 in Rain Heavy Rain
11:36 PM 57.2 °F 53.6 °F 88% 29.51 in 5.0 mi North 20.7 mph 32.2 mph 0.21 in Rain Heavy Rain
11:52 PM 57.0 °F 53.1 °F 87% 29.50 in 6.0 mi North 20.7 mph 33.4 mph 0.27 in Rain Rain